Location: Larch Mountain
(45.5297°N, 122.0872°W)
Time: 22:07:15
(UTC-07:00)

ISS - All Passes

Search period start: 27 August 2016 00:00
Search period end: 06 September 2016 00:00
Orbit: 402 x 406 km, 51.6° (Epoch: 27 August)

Date Brightness Start Highest point End Pass type
(mag) Time Alt. Az. Time Alt. Az. Time Alt. Az.
27 Aug - 09:26:03 10° SSW 09:29:03 34° SE 09:32:05 10° ENE daylight
27 Aug - 11:02:17 10° W 11:05:28 46° NNW 11:08:40 10° NE daylight
27 Aug - 12:39:34 10° WNW 12:42:26 27° N 12:45:18 10° ENE daylight
27 Aug - 14:16:15 10° NW 14:19:25 44° NNE 14:22:36 10° E daylight
27 Aug - 15:52:48 10° WNW 15:55:52 37° SW 15:58:55 10° SSE daylight
28 Aug - 08:34:21 10° S 08:36:48 19° SE 08:39:15 10° E daylight
28 Aug - 10:09:42 10° WSW 10:12:59 70° NNW 10:16:16 10° ENE daylight
28 Aug - 11:46:55 10° WNW 11:49:49 28° N 11:52:44 10° NE daylight
28 Aug - 13:23:50 10° NW 13:26:53 33° NNE 13:29:55 10° E daylight
28 Aug - 15:00:15 10° WNW 15:03:32 65° SSW 15:06:47 10° SE daylight
29 Aug - 07:43:38 10° SSE 07:44:36 11° SE 07:45:35 10° ESE daylight
29 Aug - 09:17:16 10° SW 09:20:32 72° SSE 09:23:49 10° ENE daylight
29 Aug - 10:54:12 10° W 10:57:13 32° NNW 11:00:15 10° NE daylight
29 Aug - 12:31:22 10° NW 12:34:17 29° N 12:37:13 10° ENE daylight
29 Aug - 14:07:49 10° WNW 14:11:06 75° NNE 14:14:23 10° ESE daylight
29 Aug - 15:44:56 10° W 15:47:14 18° SW 15:49:32 10° S daylight
30 Aug - 08:25:04 10° SW 08:28:11 41° SE 08:31:18 10° ENE daylight
30 Aug - 10:01:30 10° W 10:04:39 41° NNW 10:07:49 10° NE daylight
30 Aug - 11:38:47 10° WNW 11:41:40 27° N 11:44:31 10° ENE daylight
30 Aug - 13:15:24 10° NW 13:18:36 49° NNE 13:21:49 10° E daylight
30 Aug - 14:52:02 10° WNW 14:54:59 30° SW 14:57:55 10° SSE daylight
31 Aug - 07:33:11 10° SSW 07:35:52 23° SE 07:38:34 10° E daylight
31 Aug - 09:08:53 10° WSW 09:12:08 60° NNW 09:15:24 10° ENE daylight
31 Aug - 10:46:08 10° WNW 10:49:01 27° N 10:51:55 10° ENE daylight
31 Aug - 12:22:58 10° NW 12:26:04 36° NNE 12:29:09 10° E daylight
31 Aug - 13:59:25 10° WNW 14:02:39 54° SW 14:05:51 10° SE daylight
01 Sep - 06:41:57 10° SSE 06:43:38 13° SE 06:45:20 10° ESE daylight
01 Sep - 08:16:22 10° WSW 08:19:40 86° SE 08:22:57 10° ENE daylight
01 Sep - 09:53:25 10° WNW 09:56:24 31° N 09:59:23 10° NE daylight
01 Sep - 11:30:30 10° NW 11:33:27 30° N 11:36:25 10° ENE daylight
01 Sep - 13:06:55 10° WNW 13:10:13 88° NNE 13:13:30 10° ESE daylight
01 Sep - 14:44:21 10° W 14:46:17 15° SW 14:48:12 10° S daylight
02 Sep - 07:24:04 10° SW 07:27:14 49° SE 07:30:26 10° ENE daylight
02 Sep - 09:00:41 10° W 09:03:48 38° NNW 09:06:54 10° NE daylight
02 Sep - 10:37:56 10° WNW 10:40:49 27° N 10:43:42 10° ENE daylight
02 Sep - 12:14:29 10° WNW 12:17:44 56° NNE 12:20:59 10° ESE daylight
02 Sep - 13:51:14 10° W 13:54:01 25° SW 13:56:48 10° SSE daylight
03 Sep - 06:32:02 10° SSW 06:34:53 28° SE 06:37:46 10° E daylight
03 Sep - 08:08:00 10° W 08:11:14 52° NNW 08:14:28 10° NE daylight
03 Sep - 09:45:17 10° WNW 09:48:09 27° N 09:51:02 10° ENE daylight
03 Sep - 11:22:03 10° NW 11:25:10 39° NNE 11:28:18 10° E daylight
03 Sep - 12:58:32 10° WNW 13:01:42 44° SW 13:04:50 10° SE daylight
04 Sep - 05:40:30 10° S 05:42:37 16° SE 05:44:45 10° E visible
04 Sep - 07:15:26 10° WSW 07:18:43 81° NNW 07:22:01 10° ENE daylight
04 Sep - 08:52:34 10° WNW 08:55:31 29° N 08:58:27 10° NE daylight
04 Sep - 10:29:33 10° NW 10:32:34 31° NNE 10:35:34 10° ENE daylight
04 Sep - 12:05:59 10° WNW 12:09:16 79° SSW 12:12:33 10° SE daylight
04 Sep - 13:43:52 10° WSW 13:45:14 12° SW 13:46:37 10° SSW daylight
05 Sep - 06:23:01 10° SW 06:26:15 60° SSE 06:29:30 10° ENE daylight
05 Sep - 07:59:49 10° W 08:02:52 35° NNW 08:05:56 10° NE daylight
05 Sep - 09:37:01 10° NW 09:39:55 28° N 09:42:49 10° ENE daylight
05 Sep - 11:13:30 10° WNW 11:16:47 65° NNE 11:20:03 10° ESE daylight
05 Sep - 12:50:25 10° W 12:52:59 21° SW 12:55:34 10° S daylight
